Date,TemperatureHighF,TemperatureAvgF,TemperatureLowF,DewpointHighF,DewpointAvgF,DewpointLowF,HumidityHigh,HumidityAvg,HumidityLow,PressureMaxIn,PressureMinIn,WindSpeedMaxMPH,WindSpeedAvgMPH,GustSpeedMaxMPH,PrecipitationSumIn
2013-1-1,49.9,41.1,34.2,38.4,34.1,30.7,90,77,58,30.29,30.21,8,2,12,0.00
2013-1-2,54.4,42.4,33.5,38.6,34.2,28.4,90,74,52,30.26,30.15,4,1,7,0.00
2013-1-3,54.8,43.0,33.0,41.2,35.8,27.7,88,76,58,30.28,30.17,4,0,5,0.00
2013-1-4,55.6,44.4,35.6,39.9,36.6,32.9,92,76,48,30.30,30.19,4,1,6,0.00
2013-1-5,53.5,44.7,36.0,45.8,40.9,34.2,95,87,71,30.27,30.08,5,1,8,0.21
2013-1-6,46.8,43.1,37.9,44.4,41.7,36.7,97,95,90,30.20,30.07,4,1,7,0.16
2013-1-7,57.3,43.3,32.1,48.3,40.2,31.3,98,90,71,30.27,30.17,4,0,6,0.01
2013-1-8,60.5,47.4,39.3,47.0,42.5,38.3,97,84,58,30.25,30.14,5,1,6,0.01
2013-1-9,52.9,44.0,37.8,48.0,41.1,35.8,97,90,75,30.16,29.98,7,1,8,0.01
2013-1-10,53.1,43.3,37.4,37.4,33.7,30.1,81,70,45,30.19,30.07,7,1,12,0.00
2013-1-11,52.2,41.3,35.1,39.7,33.8,29.6,93,75,52,30.26,30.13,6,1,9,0.09
2013-1-12,49.7,40.6,34.1,35.1,28.1,24.1,94,63,38,30.26,30.14,4,1,7,0.00
2013-1-13,48.4,39.4,28.5,27.0,20.7,12.3,83,50,30,30.28,30.18,6,1,10,0.00
2013-1-14,49.3,40.7,35.0,22.4,16.8,10.3,57,38,29,30.41,30.22,7,2,12,0.00
2013-1-15,52.1,39.9,30.3,30.6,26.5,21.6,75,60,35,30.49,30.40,4,0,7,0.00
2013-1-16,54.7,42.9,33.9,35.3,32.2,28.7,83,67,44,30.45,30.27,3,1,10,0.00
2013-1-17,59.5,48.6,37.4,37.3,33.7,31.4,79,58,36,30.28,30.17,6,1,11,0.00
2013-1-18,62.8,49.3,38.7,39.5,34.6,31.9,81,59,33,30.24,30.14,5,1,11,0.00
2013-1-19,60.5,48.4,36.3,41.0,35.3,29.0,77,61,44,30.26,30.17,4,1,11,0.00
2013-1-20,60.2,44.3,36.1,38.9,32.9,28.2,79,65,36,30.24,30.17,2,0,5,0.00
2013-1-21,60.8,48.0,36.5,41.7,36.5,28.7,83,65,42,30.19,30.10,4,1,9,0.00
2013-1-22,64.3,51.2,40.2,44.6,40.3,34.4,84,68,45,30.13,30.02,3,0,6,0.00
2013-1-23,52.1,48.6,44.9,48.2,44.6,41.5,93,86,78,30.10,29.96,2,0,5,0.06
2013-1-24,52.6,50.5,47.8,50.4,48.7,46.2,96,94,89,30.19,30.07,6,2,14,0.20
2013-1-25,67.3,55.8,50.0,57.7,53.0,48.9,97,90,70,30.19,30.04,4,1,5,0.02
2013-1-26,59.3,50.0,44.7,50.8,44.8,39.5,97,84,51,30.07,29.98,11,2,14,0.01
2013-1-27,57.9,46.3,39.9,40.5,37.2,28.4,88,72,34,30.17,30.06,8,2,9,0.00
2013-1-28,58.5,47.0,38.8,42.5,38.5,34.4,90,73,41,30.29,30.16,7,2,10,0.00
2013-1-29,58.9,48.4,41.5,45.3,41.9,38.6,92,79,58,30.35,30.26,7,2,8,0.00
2013-1-30,66.2,55.9,46.2,42.5,37.9,31.9,77,52,38,30.34,30.25,8,3,10,0.00
2013-1-31,64.0,50.3,38.8,46.9,40.6,33.3,88,70,52,30.30,30.18,4,1,8,0.00
2013-2-1,65.3,52.9,41.3,48.7,44.7,38.3,91,75,53,30.21,30.12,5,1,8,0.00
2013-2-2,63.1,51.3,43.4,50.9,46.0,40.9,94,83,62,30.28,30.20,4,0,6,0.00
2013-2-3,63.0,50.3,43.7,47.1,44.3,41.5,96,81,55,30.25,30.13,8,2,11,0.01
2013-2-4,66.0,48.5,37.7,51.1,44.1,36.1,97,86,51,30.18,30.06,4,0,5,0.00
2013-2-5,56.4,48.7,45.3,47.2,44.6,42.1,95,86,68,30.14,30.07,9,3,11,0.00
2013-2-6,61.9,48.1,38.1,46.2,41.3,36.5,96,79,49,30.19,30.11,5,1,7,0.01
2013-2-7,56.6,45.1,37.0,44.9,39.5,34.6,93,82,52,30.18,29.99,9,2,14,0.04
2013-2-8,54.8,43.7,38.6,42.2,38.4,34.8,95,82,59,30.02,29.94,8,1,13,0.01
2013-2-9,59.9,47.0,36.8,34.3,29.5,25.7,79,53,29,30.10,29.99,5,1,8,0.00
2013-2-10,59.8,46.1,32.6,37.4,33.6,27.6,83,64,38,30.13,30.02,6,1,10,0.00
2013-2-11,61.7,47.9,35.7,35.9,31.2,25.1,89,56,25,30.23,30.07,4,1,7,0.00
2013-2-12,62.3,48.6,35.1,39.2,34.5,29.1,84,60,38,30.36,30.23,3,1,7,0.00
2013-2-13,67.3,51.2,37.0,43.4,38.4,33.5,89,65,33,30.34,30.20,3,0,5,0.00
2013-2-14,66.7,55.2,41.0,43.4,40.0,36.8,87,59,39,30.25,30.16,6,2,11,0.00
2013-2-15,70.0,57.8,43.5,48.0,42.1,35.8,79,57,42,30.27,30.21,5,1,9,0.00
2013-2-16,68.5,54.1,42.8,48.2,42.8,37.6,86,67,42,30.24,30.04,3,0,8,0.00
2013-2-17,66.3,52.1,42.1,47.2,43.0,40.4,95,74,40,30.05,29.95,5,1,7,0.00
2013-2-18,50.8,45.9,39.6,43.3,40.2,37.2,93,81,67,30.03,29.96,7,2,13,0.00
2013-2-19,48.3,42.7,37.1,41.8,37.9,33.0,94,83,69,29.97,29.74,13,4,15,0.40
2013-2-20,62.1,44.7,34.6,42.3,36.4,31.1,89,75,37,30.06,29.83,10,3,17,0.00
2013-2-21,61.6,48.3,38.5,41.5,36.5,29.3,92,67,31,30.17,30.04,9,3,11,0.00
2013-2-22,66.8,48.0,35.3,44.4,38.2,32.7,93,73,33,30.26,30.17,15,2,16,0.00
2013-2-23,59.8,50.8,44.3,45.6,38.1,29.6,94,65,34,30.25,30.14,12,4,14,0.00
2013-2-24,61.6,50.2,40.8,32.4,26.3,22.3,62,41,24,30.26,30.16,7,2,10,0.00
2013-2-25,66.7,49.9,35.7,44.1,37.1,27.8,89,64,37,30.27,30.16,5,1,10,0.00
2013-2-26,68.6,54.0,37.6,38.7,28.6,15.6,90,45,15,30.21,30.12,8,2,14,0.00
2013-2-27,72.5,52.9,37.8,42.7,34.5,21.4,78,54,19,30.36,30.21,8,1,10,0.00
2013-2-28,72.4,55.3,42.6,53.6,46.9,39.5,91,75,48,30.44,30.36,5,1,7,0.00
2013-3-1,72.6,58.2,44.9,50.4,47.5,43.5,96,71,43,30.42,30.23,5,1,11,0.00
2013-3-2,73.8,60.1,48.7,54.4,48.2,44.8,88,67,39,30.24,30.04,6,1,10,0.00
2013-3-3,68.2,55.5,46.5,49.7,46.5,43.7,91,74,43,30.09,30.01,10,2,13,0.00
2013-3-4,61.9,49.9,43.6,49.6,44.0,39.5,91,81,57,30.15,30.04,6,2,11,0.00
2013-3-5,60.8,49.9,41.3,43.6,40.6,37.5,94,72,45,30.06,29.83,19,6,23,0.02
2013-3-6,57.9,49.6,42.9,45.7,41.2,37.8,90,74,51,30.07,29.83,21,5,27,0.03
2013-3-7,58.1,47.2,37.0,45.5,39.9,35.0,94,78,46,30.00,29.85,8,1,11,0.09
2013-3-8,63.0,49.5,42.0,45.4,43.0,39.8,95,80,44,30.05,29.82,15,4,18,0.02
2013-3-9,68.7,53.6,42.2,44.2,40.2,31.3,92,65,27,30.30,30.05,13,3,17,0.00
2013-3-10,71.7,54.6,39.2,42.4,36.7,29.8,91,57,22,30.34,30.24,5,1,8,0.00
2013-3-11,75.1,57.2,41.6,47.0,41.0,36.5,83,58,31,30.25,30.09,3,0,6,0.00
2013-3-12,77.1,60.4,44.2,51.6,46.3,40.4,89,63,36,30.14,30.05,4,1,9,0.00
2013-3-13,78.2,63.4,47.8,55.3,50.6,43.8,90,66,42,30.15,30.05,5,1,10,0.00
2013-3-14,77.2,61.8,50.3,58.7,50.3,41.5,93,68,33,30.14,30.06,8,1,10,0.00
2013-3-15,73.2,57.7,45.1,54.6,46.4,41.1,88,67,47,30.11,30.02,8,2,12,0.00
2013-3-16,75.8,56.7,45.9,52.9,46.5,38.9,97,73,27,30.10,30.01,9,2,11,0.00
2013-3-17,71.1,56.0,44.1,48.1,43.6,38.0,93,66,32,30.14,30.03,7,1,8,0.00
2013-3-18,69.2,53.6,41.5,48.4,43.2,39.1,93,70,47,30.11,30.02,10,2,14,0.00
2013-3-19,72.6,55.2,45.4,47.5,44.0,38.1,90,69,36,30.13,30.05,7,1,11,0.04
2013-3-20,65.6,55.9,49.9,56.6,50.8,46.9,95,84,55,30.13,30.06,11,2,14,0.06
2013-3-21,67.9,53.9,43.2,49.3,43.1,37.3,89,70,34,30.12,30.00,6,2,10,0.00
2013-3-22,68.5,55.9,42.1,42.2,23.1,5.2,91,36,9,30.11,30.01,12,4,17,0.00
2013-3-23,70.5,56.4,46.8,39.6,28.3,21.7,62,36,18,30.14,30.02,7,2,13,0.00
2013-3-24,74.7,55.4,41.3,48.3,40.7,35.7,83,60,34,30.08,29.95,8,2,10,0.00
2013-3-25,65.7,51.9,43.5,46.5,43.2,38.3,93,74,41,30.00,29.93,8,2,9,0.00
2013-3-26,69.8,54.7,45.2,50.0,45.2,41.8,89,72,45,30.00,29.91,7,2,12,0.00
2013-3-27,68.3,56.1,46.4,52.8,48.3,42.3,89,76,55,30.00,29.94,8,2,12,0.00
2013-3-28,74.3,60.7,53.0,53.8,51.9,49.4,92,75,46,30.07,30.00,5,1,6,0.00
2013-3-29,77.4,63.1,51.1,53.5,50.8,48.5,93,67,42,30.08,29.99,5,2,7,0.00
2013-3-30,72.9,60.3,55.4,54.7,51.8,47.2,91,75,43,30.04,29.94,11,2,18,0.05
2013-3-31,68.8,59.0,52.4,53.8,50.1,46.5,91,74,46,30.06,29.98,9,2,14,0.03
2013-4-1,69.0,57.8,49.7,54.6,50.5,46.0,96,79,52,30.14,30.04,7,1,12,0.04
2013-4-2,72.3,58.0,45.5,53.8,49.4,43.5,95,75,50,30.17,30.06,5,1,9,0.00
2013-4-3,77.3,59.5,46.0,53.1,49.2,44.9,97,73,41,30.13,29.96,6,1,8,0.01
2013-4-4,56.5,53.7,50.8,50.8,49.7,47.7,93,86,79,30.03,29.96,7,3,10,0.14
2013-5-15,61.1,55.7,52.7,48.8,47.8,47.0,84,75,63,30.02,30.00,5,2,7,0.00
2013-5-16,70.4,57.6,52.6,55.0,48.7,-99.9,88,75,52,30.03,29.96,4,2,9,0.04
2013-5-17,69.0,58.1,50.5,48.4,45.8,43.4,82,65,41,30.08,29.96,4,1,8,0.00
2013-5-18,76.8,61.0,48.7,52.9,48.2,43.5,83,65,38,30.12,30.06,8,2,12,0.00
2013-5-19,84.6,66.6,50.0,51.8,47.0,40.6,87,54,27,30.11,29.95,5,1,8,0.00
2013-5-20,91.0,73.0,53.1,50.4,39.0,28.6,73,35,12,29.99,29.90,7,2,11,0.00
2013-5-21,70.1,57.7,49.8,49.7,46.1,40.9,82,67,38,29.97,29.88,17,8,24,0.00
2013-5-22,69.7,55.0,44.0,44.1,36.4,19.7,83,55,18,30.00,29.90,14,4,21,0.00
2013-5-23,71.7,55.3,47.9,45.4,43.2,39.7,85,67,36,30.00,29.91,13,6,16,0.00
2013-5-24,76.7,56.9,44.5,46.6,41.7,33.8,91,62,23,29.99,29.94,11,3,16,0.00
2013-5-25,67.3,54.8,47.8,49.0,45.1,41.8,90,71,45,30.04,29.95,14,7,17,0.00
2013-5-26,73.1,59.2,51.3,53.2,50.6,48.2,93,76,44,30.12,30.03,15,5,22,0.00
2013-5-27,65.4,57.5,52.0,56.2,51.8,48.0,92,82,66,30.12,29.98,11,4,12,0.01
2013-5-28,74.7,61.8,54.8,57.6,53.9,50.6,94,77,47,30.00,29.90,12,3,14,0.00
2013-5-29,74.5,61.2,53.0,56.2,51.2,48.4,88,72,43,29.96,29.89,13,6,17,0.00
2013-5-30,77.2,61.6,48.9,49.4,46.1,40.6,91,61,29,29.97,29.91,12,5,15,0.00
2013-5-31,92.2,69.1,49.0,50.0,45.0,37.9,86,49,19,30.00,29.89,6,1,9,0.00
2013-6-1,97.3,78.6,56.1,54.3,46.3,41.5,70,37,16,29.90,29.73,5,1,8,0.00
2013-6-3,83.1,70.1,55.9,54.6,51.7,49.8,80,54,36,29.82,29.74,10,4,12,0.00
2013-6-4,80.1,63.0,51.2,56.7,52.3,48.7,93,70,42,29.93,29.82,7,2,14,0.00
2013-6-5,77.1,62.9,52.2,55.7,51.9,49.2,91,70,42,29.97,29.87,11,2,16,0.00
2013-6-6,82.6,65.9,52.4,57.0,53.1,49.3,91,67,39,29.93,29.81,10,3,16,0.00
2013-6-7,103.4,72.3,54.1,60.8,55.5,51.4,93,64,22,29.85,29.70,6,2,7,0.00
2013-6-10,74.4,66.6,56.2,54.9,52.8,50.8,82,62,47,29.92,29.88,9,4,13,0.01
2013-6-11,79.5,64.9,54.2,57.3,53.2,45.6,89,68,45,29.95,29.87,8,3,13,0.00
2013-6-12,79.5,63.5,52.7,54.0,46.8,36.3,89,59,23,29.97,29.88,18,6,23,0.00
2013-6-13,85.2,66.0,50.7,49.2,45.7,39.4,86,53,24,30.07,29.96,13,2,16,0.00
2013-6-14,89.8,71.6,53.2,50.1,42.0,33.1,80,40,16,29.97,29.80,7,2,9,0.00
2013-6-15,77.4,63.0,52.3,53.8,48.6,39.1,87,62,32,29.98,29.80,16,4,24,0.00
2013-6-16,83.9,64.3,51.4,53.3,49.3,45.1,88,62,27,30.06,29.97,14,6,19,0.00
2013-6-17,72.1,60.7,53.1,56.5,52.6,49.8,91,76,54,30.07,30.02,15,10,21,0.00
2013-6-18,71.4,60.4,53.6,53.3,50.3,47.9,93,72,45,30.02,29.98,12,5,14,0.00
2013-6-19,78.3,62.5,51.7,50.9,48.5,43.8,87,64,31,30.04,29.98,14,5,17,0.00
2013-6-20,83.9,64.0,51.3,51.7,48.4,40.8,89,62,24,29.99,29.92,17,5,18,0.00
2013-6-21,88.2,66.7,49.6,51.7,46.9,25.1,91,55,11,29.96,29.89,9,2,12,0.00
2013-6-22,93.3,69.4,53.1,53.2,48.5,39.7,89,55,16,29.91,29.81,17,4,21,0.00
2013-6-23,71.9,61.9,55.0,60.7,56.9,52.8,95,84,66,29.87,29.79,13,6,18,0.00
2013-6-24,69.0,63.4,59.2,61.2,59.3,57.2,94,87,74,29.89,29.77,6,2,11,0.05
2013-6-25,78.6,69.2,62.5,64.1,60.8,56.8,87,75,60,29.96,29.86,10,3,18,0.00
2013-6-26,88.0,72.9,61.7,65.5,61.4,58.0,94,70,44,30.02,29.94,8,2,12,0.00
2013-6-27,96.3,76.2,58.9,63.7,58.3,51.3,93,59,26,30.05,29.97,6,1,7,0.00
2013-6-28,103.2,84.3,64.2,61.5,55.4,45.8,73,42,16,30.00,29.86,8,2,12,0.00
2013-6-29,105.4,86.1,68.2,57.3,53.0,48.0,61,35,15,29.88,29.75,9,2,12,0.00
2013-6-30,95.5,81.3,70.2,57.1,53.0,49.3,58,39,24,29.80,29.71,13,4,15,0.00
2013-7-1,97.7,81.3,63.2,59.5,53.8,48.4,77,43,21,29.80,29.75,12,4,17,0.00
2013-7-2,99.6,82.3,67.1,60.3,57.2,54.0,68,45,24,29.86,29.78,13,4,17,0.00
2013-7-3,101.8,80.6,63.0,62.9,57.7,54.4,82,50,22,29.86,29.72,11,2,13,0.00
2013-7-4,104.1,83.3,70.7,63.0,57.0,45.0,69,44,20,29.73,29.62,14,4,22,0.00
2013-7-5,80.4,66.4,56.7,56.1,51.9,45.5,82,61,36,29.75,29.66,20,7,23,0.00
2013-7-6,83.8,65.5,55.2,55.6,52.3,50.6,87,66,34,29.77,29.68,10,2,15,0.00
2013-7-7,86.6,67.9,51.8,54.6,51.7,44.4,92,62,23,29.82,29.73,11,3,13,0.00
2013-7-8,88.1,68.3,53.8,55.9,51.3,42.3,93,61,21,29.94,29.82,11,2,12,0.01
2013-7-9,101.2,79.7,58.9,57.1,50.3,36.5,86,44,13,29.99,29.87,7,2,8,0.00
2013-7-10,89.8,72.7,57.5,57.1,51.7,42.5,87,53,20,29.93,29.84,10,3,13,0.00
2013-7-11,82.6,65.5,54.8,56.0,52.8,47.3,92,67,31,29.91,29.83,11,3,16,0.00
2013-7-12,88.2,67.3,53.0,54.0,49.6,40.5,92,59,26,29.90,29.84,11,3,15,0.00
2013-7-13,92.9,72.0,54.6,53.7,48.3,40.1,88,49,16,29.92,29.85,9,2,10,0.00
2013-7-14,90.1,69.0,55.5,54.5,50.0,42.2,86,55,23,29.95,29.85,10,3,14,0.00
2013-7-15,78.5,62.5,54.7,55.9,52.6,50.5,91,73,44,29.89,29.79,10,3,15,0.00
2013-7-16,75.2,63.2,54.5,55.9,52.6,49.8,87,70,49,30.02,29.84,3,1,7,0.00
2013-7-17,84.6,67.3,57.4,59.7,54.5,51.2,82,66,39,30.08,29.99,4,1,8,0.00
2013-7-18,92.6,70.3,53.9,58.6,51.8,45.4,88,58,20,30.03,29.90,4,1,9,0.00
2013-7-19,94.1,71.7,54.4,60.7,54.1,49.3,87,58,29,29.91,29.77,4,1,8,0.00
2013-7-20,90.3,70.4,55.5,61.1,55.0,50.1,87,62,33,29.82,29.68,6,1,8,0.00
2013-7-21,92.3,72.0,55.6,60.3,54.6,50.9,85,58,31,29.83,29.72,4,1,8,0.00
2013-7-22,88.9,71.3,56.8,61.6,55.6,51.7,85,60,34,29.92,29.83,4,0,11,0.00
2013-7-23,88.7,73.8,64.0,61.1,55.6,50.5,73,55,34,29.96,29.90,3,0,7,0.00
2013-7-24,95.2,77.1,60.9,58.8,53.3,47.7,78,48,22,29.95,29.85,4,1,6,0.00
2013-7-25,91.3,74.6,62.2,59.5,53.8,48.6,73,50,31,29.98,29.88,3,1,7,0.00
2013-7-26,91.4,72.2,57.1,61.0,55.4,51.1,84,59,32,30.05,29.95,4,1,6,0.00
2013-7-27,87.6,69.5,56.6,61.5,55.4,51.8,87,65,32,29.99,29.81,11,2,18,0.00
2013-7-28,83.3,66.0,55.9,57.8,54.6,51.8,93,70,39,29.84,29.75,12,3,16,0.00
2013-7-29,81.9,64.3,55.2,56.9,52.6,50.8,89,69,37,29.97,29.80,11,3,14,0.00
2013-7-30,84.2,65.4,53.7,57.7,53.7,50.8,94,70,33,30.07,29.98,12,2,18,0.00
2013-7-31,86.3,65.3,54.1,56.2,51.8,41.7,93,67,24,30.05,29.97,12,4,17,0.00
2013-8-1,75.2,62.6,53.9,52.3,50.4,46.8,86,67,40,30.05,29.95,13,6,17,0.00
2013-8-2,82.6,65.6,51.2,54.9,50.3,40.0,94,63,23,29.96,29.86,12,3,16,0.00
2013-8-3,83.7,65.9,52.1,55.9,53.0,49.8,94,67,32,29.95,29.86,10,2,12,0.00
2013-8-4,80.1,64.0,54.4,57.9,53.6,51.3,93,72,40,29.98,29.90,10,3,14,0.00
2013-8-5,83.4,64.5,53.6,58.4,53.9,50.5,92,72,39,30.00,29.90,10,2,10,0.00
2013-8-6,80.3,63.2,53.5,56.8,53.9,50.5,91,74,44,30.02,29.95,8,2,12,0.00
2013-8-7,80.4,64.6,56.4,56.4,54.3,51.5,89,71,41,30.07,30.01,9,2,15,0.00
2013-8-8,80.0,63.9,55.5,58.6,55.0,52.3,92,75,42,30.01,29.90,9,2,13,0.00
2013-8-9,78.2,63.5,55.1,57.8,54.5,51.6,90,74,48,29.97,29.90,9,3,13,0.00
2013-8-10,85.0,66.0,55.3,59.9,55.6,52.7,93,73,36,30.03,29.96,6,2,9,0.00
2013-8-11,86.2,66.4,56.8,59.4,55.0,51.2,93,71,31,30.01,29.91,10,3,12,0.00
2013-8-12,88.2,69.2,53.3,58.3,52.4,44.9,95,61,23,29.96,29.90,9,1,11,0.00
2013-8-13,95.4,71.7,53.1,57.4,50.4,34.7,94,55,13,29.96,29.87,7,2,11,0.00
2013-8-14,83.6,68.0,54.8,59.6,53.2,43.9,92,63,27,29.94,29.87,14,6,21,0.00
2013-8-15,90.8,71.7,60.9,64.1,61.1,59.2,94,73,36,29.94,29.88,10,4,19,0.00
2013-8-16,91.4,74.7,61.4,64.4,57.9,44.0,94,61,31,29.95,29.90,11,3,15,0.00
2013-8-17,86.8,68.1,58.4,58.9,55.3,49.7,87,66,31,29.96,29.83,14,4,17,0.00
2013-8-18,100.1,77.3,56.8,61.1,56.2,47.7,95,56,21,29.86,29.74,6,1,7,0.00
2013-8-19,102.9,82.7,67.6,61.7,56.8,49.5,70,44,20,29.86,29.75,8,1,11,0.00
2013-8-20,92.0,73.1,60.1,59.0,55.9,51.7,87,58,27,29.84,29.75,10,3,15,0.00
2013-8-21,85.6,67.3,56.6,58.3,55.2,52.0,91,68,35,29.90,29.80,8,1,10,0.00
2013-8-22,80.4,64.3,54.8,58.0,54.5,51.9,93,73,43,29.94,29.85,7,1,13,0.00
2013-8-23,79.7,64.0,55.0,58.2,54.1,51.6,92,73,41,29.91,29.78,13,4,19,0.00
2013-8-24,85.7,68.0,55.7,58.3,55.6,52.2,90,68,37,29.88,29.82,9,3,14,0.00
2013-8-25,87.0,69.5,60.7,64.2,59.8,55.9,93,74,39,29.91,29.84,7,3,13,0.00
2013-8-26,84.6,68.6,60.0,59.8,56.4,52.7,90,68,36,29.98,29.87,7,2,10,0.00
2013-8-27,88.8,68.8,54.4,58.2,54.6,49.5,93,66,27,29.89,29.78,10,3,13,0.00
2013-8-28,87.6,70.7,58.8,62.2,58.9,56.6,94,70,37,29.92,29.83,10,4,12,0.00
2013-8-29,87.6,70.5,60.0,64.1,59.6,54.6,95,72,33,30.02,29.92,7,3,12,0.00
2013-8-30,95.9,75.9,59.3,63.2,57.5,48.7,94,60,22,30.01,29.88,9,2,11,0.00
2013-8-31,87.7,71.6,59.6,56.8,54.0,45.4,85,57,28,29.94,29.85,9,3,12,0.00
2013-9-1,87.5,70.9,61.6,60.4,56.6,53.6,87,64,35,29.91,29.83,9,4,14,0.00
2013-9-2,86.3,70.6,63.0,63.4,60.8,58.7,92,73,41,29.93,29.86,9,5,12,0.00